Showing default

KINEIS-2D, 62930

Orbit data source: Space-Track

KINEIS-2D, 62930 is a French payload satellite in SSO that was launched on Sat, 08 Feb 2025 UTC via an ELECTRON launch vehicle from the Rocket Lab Launch Complex (RLLC). Payload-class satellites include a variety of spacecraft equipped with specific instruments for various scientific and technological missions. These include communications satellites like Starlink; space stations such as the ISS; scientific satellites like the Hubble; Earth observation satellites from companies like Planet Labs, Umbra, and HawkEye 360; GPS; miniature CubeSats for education and research; and military/defense satellites.

Loading next visibility...
Identifier
62930, 2025-028C
Orbit
SSO
Country
Flag of FRFR
Related business
Manufacturer
KINEIS
Mission
Operational Commercial Communications
Bus & Motor
CUBESAT 16U, Unknown motor
Mass
28 kg wet, 28 kg dry
Launch date (UTC)
2025-02-08 (1 year ago)
Launch vehicle
ELECTRON
Launch site
Rocket Lab Launch Complex (RLLC)
Object type
Payload
Rocket body
Debris
Shape & HBR
Box + 2 Pan + 1 Ant, 1.0 m
Radar Cross Section
0.229 m², Medium (>0.1 m² and < 1m²)

Expand to show TLE details & history
Last TLE update: 5 hours ago

TLE from 5 hours ago
0 KINEIS-2D
1 62930U 25028C   26034.11421659  .00001773  00000-0  26972-3 0  9998
2 62930  97.9476  89.0678 0001798 273.2245  86.8758 14.75199564 52945
Epoch: 2026-02-03T02:44Z
TLE epoch observation values (Epoch: 2026-02-03T02:44:28.313Z)
Latitude
-0.00006°
Longitude
-85.34996°
Altitude
647.463 km
Speed
7.534 km/s
True Right ascension
05h 56m 16s
True Declination
0° 00' 00"
Sunlit
Object was in full shadow at epoch
Visualization orbit readout
Latitude
Unknown
Longitude
Unknown
Altitude
Unknown
Speed
Unknown
Apparent Right ascension
Unknown
Apparent Declination
Unknown
Sunlit
N/A
Visualization observer readout
Local Sidereal Time
09:45:04
Azimuth
Unknown
Elevation
Unknown
Doppler factor
Unknown
Orbital elements
Apogee altitude
642.829 km
Perigee altitude
640.305 km
Semi-major axis
7,019.704 km
Eccentricity
0.00018
Inclination
97.9476°
RAAN
89.0678°
Arg. of periapsis
273.2245°
True anomaly
86.89637°
Mean anomaly
86.8758°
Eccentric anomaly
86.88609°
Mean motion
3.69033 °/min
Orbital period
97.55 mins
BSTAR
0.00026972
Loading maneuver chart data...
Computing Atmospheric mass density...
Loading historical data...
Loading historical data...
Loading historical data...
Loading historical data...
Loading historical data...
Loading historical data...
Loading historical data...

Documentation

Showing up to 5 results
|